This demonstration page uses our WeatherBlox Daily Observations layout. Learn more.

Left ArrowRight Arrow

39.51506, -84.39828

Hourly Observations for May 29, 2016

Temp ( °F °C ) Dew Point ( °F °C ) Humidity (%) Winds ( mph kmh ) Pressure ( in mb ) Visibility ( mi km ) Precip ( " mm )
12:15 am 00:15 Clear 69 20.8 64 17.6 82 82 N N/A 30.06 1018 7 11 N/A
12:35 am 00:35 Clear 69 20.8 64 17.7 83 83 N N/A 30.06 1018 7 11 N/A
12:55 am 00:55 Mostly Cloudy with Haze 67 19.7 62 16.5 82 82 N N/A 30.06 1018 5 8 N/A
1:15 am 01:15 Partly Cloudy 67 19.5 62 16.4 82 82 N N/A 30.06 1018 7 11 N/A
1:35 am 01:35 Mostly Cloudy with Haze 66 18.7 60 15.7 83 83 N N/A 30.06 1018 5 8 N/A
1:55 am 01:55 Mostly Cloudy 67 19.5 62 16.5 83 83 N N/A 30.06 1018 7 11 N/A
2:15 am 02:15 Partly Cloudy 67 19.3 61 16.3 83 83 N N/A 30.06 1018 7 11 N/A
2:35 am 02:35 Partly Cloudy 67 19.5 62 16.5 83 83 N N/A 30.09 1019 7 11 N/A
2:55 am 02:55 Clear 67 19.5 62 16.5 83 83 N N/A 30.09 1019 7 11 N/A
3:15 am 03:15 Clear 69 20.8 64 17.8 83 83 N N/A 30.06 1018 7 11 N/A
3:35 am 03:35 Clear 69 20.8 64 17.8 83 83 N N/A 30.06 1018 7 11 N/A
3:55 am 03:55 Clear 69 20.8 64 17.7 83 83 N N/A 30.06 1018 7 11 N/A
4:15 am 04:15 Clear 69 20.8 64 17.7 83 83 N N/A 30.06 1018 7 11 N/A
4:35 am 04:35 Clear 69 20.8 64 17.7 83 83 N N/A 30.06 1018 7 11 N/A
4:55 am 04:55 Clear 69 20.8 64 17.7 83 83 N N/A 30.06 1018 7 11 N/A
5:15 am 05:15 Mostly Cloudy 69 20.8 64 17.7 83 83 N N/A 30.06 1018 7 11 N/A
5:35 am 05:35 Cloudy 69 20.8 64 17.7 83 83 N N/A 30.09 1019 7 11 N/A
5:55 am 05:55 Cloudy with Rain 69 20.8 64 17.8 83 83 N N/A 30.09 1019 7 11 N/A
6:15 am 06:15 Cloudy with Rain 69 20.8 64 17.7 83 83 N N/A 30.09 1019 7 11 N/A
6:35 am 06:35 Mostly Cloudy with Haze 69 20.8 64 17.7 83 83 N N/A 30.09 1019 4 6 N/A
6:55 am 06:55 Hazy 69 20.8 64 17.8 83 83 N N/A 30.09 1019 4 6 N/A
7:15 am 07:15 Hazy 69 20.8 64 17.8 83 83 N N/A 30.09 1019 4 6 N/A
7:35 am 07:35 Hazy 69 20.8 64 17.8 83 83 N N/A 30.09 1019 5 8 N/A
7:55 am 07:55 Hazy 69 20.8 64 17.7 83 83 N N/A 30.09 1019 5 8 N/A
8:15 am 08:15 Hazy 69 20.8 64 17.5 82 82 N N/A 30.09 1019 5 8 N/A
8:35 am 08:35 Sunny 69 20.8 64 17.5 82 82 N N/A 30.09 1019 7 11 N/A
8:55 am 08:55 Sunny 71 21.5 64 18 81 81 N N/A 30.09 1019 7 11 N/A
9:15 am 09:15 Sunny 74 23.6 65 18.5 73 73 S 3 6 30.09 1019 10 16 N/A
9:35 am 09:35 Sunny 74 23.6 65 18.4 73 73 WNW 3 6 30.09 1019 10 16 N/A
9:55 am 09:55 Sunny 74 23.6 63 17.1 67 67 S 7 11 30.09 1019 10 16 N/A
10:15 am 10:15 Sunny 75 24 64 17.5 67 67 SSW 6 9 30.09 1019 10 16 N/A
10:35 am 10:35 Sunny 77 25.1 65 18.3 66 66 SW 5 7 30.09 1019 10 16 N/A
10:55 am 10:55 Sunny 77 25.1 64 17.9 64 64 S 6 9 30.09 1019 10 16 N/A
11:15 am 11:15 Sunny 80 26.5 66 18.8 63 63 SW 6 9 30.09 1019 10 16 N/A
11:35 am 11:35 Sunny 80 26.5 65 18.4 61 61 SSW 7 11 30.09 1019 10 16 N/A
11:55 am 11:55 Sunny 80 26.5 64 17.9 59 59 S 5 7 30.09 1019 10 16 N/A
12:15 pm 12:15 Sunny 81 27.2 65 18.2 58 58 SSW 6 9 30.09 1019 10 16 N/A
12:35 pm 12:35 Sunny 82 28 65 18.3 56 56 S 7 11 30.06 1018 10 16 N/A
12:55 pm 12:55 Sunny 82 28 64 17.7 54 54 S 7 11 30.06 1018 10 16 N/A
1:15 pm 13:15 Sunny 82 28 63 17 51 51 SSW 8 13 30.06 1018 10 16 N/A
1:35 pm 13:35 Sunny 83 28.6 61 16.1 47 47 SSW 6 9 30.06 1018 10 16 N/A
1:55 pm 13:55 Sunny 85 29.4 61 16.1 45 45 S 8 13 30.03 1017 10 16 N/A
2:15 pm 14:15 Partly Cloudy 87 30.7 63 17 44 44 S 9 15 30.03 1017 10 16 N/A
2:35 pm 14:35 Mostly Cloudy 83 28.6 60 15.6 45 45 SSW 8 13 30.00 1016 10 16 N/A
2:55 pm 14:55 Partly Cloudy 89 31.7 64 17.6 43 43 S 9 15 30.00 1016 10 16 N/A
3:15 pm 15:15 Partly Cloudy 89 31.6 63 17.4 43 43 SSW 10 17 30.00 1016 10 16 N/A
3:35 pm 15:35 Partly Cloudy 90 32.1 64 17.6 42 42 SSW 9 15 30.00 1016 10 16 N/A
3:55 pm 15:55 Partly Cloudy with Light Rain 83 28.2 62 16.5 49 49 S 6 9 30.03 1017 10 16 N/A
4:15 pm 16:15 Partly Cloudy 90 32.1 65 18.2 44 44 S 7 11 29.97 1015 10 16 N/A
4:35 pm 16:35 Sunny 90 32.1 62 16.4 39 39 SSW 10 17 29.97 1015 10 16 N/A
4:55 pm 16:55 Partly Cloudy 87 30.6 62 16.5 43 43 SSW 8 13 29.97 1015 10 16 N/A
5:15 pm 17:15 Partly Cloudy 88 31.2 62 16.4 41 41 SSW 13 20 29.94 1014 10 16 N/A
5:35 pm 17:35 Partly Cloudy 90 32 63 17 41 41 SSW 14 22 29.94 1014 10 16 N/A
5:55 pm 17:55 Partly Cloudy 90 32.1 63 17.1 41 41 SW 12 19 29.94 1014 10 16 N/A
6:15 pm 18:15 Partly Cloudy 88 31 58 14.7 37 37 SW 14 22 29.94 1014 10 16 N/A
6:35 pm 18:35 Sunny 84 28.8 59 15.1 43 43 SSW 15 24 29.94 1014 10 16 N/A
6:55 pm 18:55 Partly Cloudy 82 28 56 13.4 41 41 SSW 9 15 29.94 1014 10 16 N/A
7:15 pm 19:15 Sunny 82 28 60 15.8 47 47 SSW 6 9 29.94 1014 10 16 N/A
7:35 pm 19:35 Sunny 82 28 61 16.3 49 49 SSW 6 9 29.94 1014 10 16 N/A
7:55 pm 19:55 Sunny 81 27.2 63 17.3 55 55 SSW 6 9 29.97 1015 10 16 N/A
8:15 pm 20:15 Sunny 81 27.2 64 18 57 57 WSW 5 7 29.97 1015 10 16 N/A
8:35 pm 20:35 Sunny 80 26.5 61 16 53 53 WSW 6 9 29.97 1015 10 16 N/A
8:55 pm 20:55 Sunny 80 26.5 61 16 53 53 W 6 9 29.97 1015 10 16 N/A
9:15 pm 21:15 Clear 77 25.1 62 16.6 59 59 W 5 7 29.97 1015 10 16 N/A
9:35 pm 21:35 Partly Cloudy 77 24.8 61 16 58 58 W 6 9 29.97 1015 10 16 N/A
10:00 pm 22:00 Partly Cloudy 77 25.1 60 15.5 55 55 W 7 11 29.97 1015 10 16 N/A
10:15 pm 22:15 Clear 74 23.6 59 15.1 59 59 W 5 7 29.97 1015 10 16 N/A
10:35 pm 22:35 Clear 74 23.6 60 15.8 62 62 NNE 6 9 30.00 1016 10 16 N/A
10:55 pm 22:55 Partly Cloudy 74 23.6 61 16.3 64 64 N N/A 30.00 1016 10 16 N/A
11:15 pm 23:15 Mostly Cloudy 70 20.9 61 16.1 74 74 N N/A 30.00 1016 10 16 N/A
11:35 pm 23:35 Partly Cloudy 69 20.8 63 17 79 79 N N/A 30.00 1016 10 16 N/A
11:55 pm 23:55 Partly Cloudy 69 20.8 62 16.9 78 78 N N/A 30.00 1016 10 16 N/A

Powered by AerisWeather